Weather History for Madisonville, KY

Change the Weather History Date:

Sunday, October 13, 2013

  Actual Average (KOWB) Record (KOWB)
Temperature  
Mean Temperature 66 °F -  
Max Temperature 78 °F 74 °F 89 °F (1989)
Min Temperature 54 °F 47 °F 28 °F (1980)
Cooling Degree Days 1    
Growing Degree Days 16 (Base 50)    
Moisture  
Dew Point 58 °F    
Average Humidity 74    
Maximum Humidity 99    
Minimum Humidity 42    
Precipitation  
Precipitation 0.00 in - - ()
Sea Level Pressure  
Sea Level Pressure 30.24 in    
Wind  
Wind Speed 5 mph (North)    
Max Wind Speed 12 mph    
Max Gust Speed 20 mph    
Visibility 9 miles    
Events      
Averages and records for this station are not official NWS values.
T = Trace of Precipitation, MM = Missing Value Source: NWS Daily Summary

Daily Weather History Graph

Daily Weather History Graph

Search for Another Location

Airport:

Trip Planner

Search our weather history database for the weather conditions in past years. The results will help you decide how hot, cold, wet, or windy it might be!

Date:

Astronomy

Oct. 13, 2013 Rise Set
Actual Time 6:55 AM CDT 6:14 PM CDT
Civil Twilight 6:29 AM CDT 6:41 PM CDT
Nautical Twilight 5:59 AM CDT 7:11 PM CDT
Astronomical Twilight 5:29 AM CDT 7:41 PM CDT
Moon 3:00 PM CDT (10/13) 1:12 AM CDT (10/13)
Length of Visible Light 12h 11m
Length of Day
11h 18m
Waxing Gibbous, 69% of the Moon is Illuminated
Oct 13
Waxing Gibbous
Oct 18
Full
Oct 26
Last Quarter
Nov 3
New
Nov 9
First Quarter

Hourly Weather History & Observations

Time (CDT) Temp. Dew Point Humidity Pressure Visibility Wind Dir Wind Speed Gust Speed Precip Events Conditions
12:15 AM 66.7 °F 66.6 °F 99% 30.15 in 7.0 mi Calm Calm - N/A   Overcast
12:35 AM 66.6 °F 66.2 °F 99% 30.15 in 7.0 mi Calm Calm - N/A   Overcast
12:55 AM 66.9 °F 66.4 °F 98% 30.16 in 7.0 mi Calm Calm - N/A   Overcast
1:15 AM 66.6 °F 66.4 °F 99% 30.16 in 7.0 mi North 3.5 mph - N/A   Overcast
1:35 AM 66.7 °F 66.2 °F 98% 30.16 in 7.0 mi Calm Calm - N/A   Overcast
1:55 AM 66.9 °F 66.4 °F 98% 30.16 in 7.0 mi Calm Calm - N/A   Overcast
2:15 AM 66.7 °F 66.2 °F 98% 30.16 in 7.0 mi Calm Calm - N/A   Overcast
2:35 AM 67.1 °F 66.6 °F 98% 30.17 in 7.0 mi Calm Calm - N/A   Overcast
2:55 AM 67.1 °F 66.4 °F 98% 30.17 in 7.0 mi North 5.8 mph - N/A   Overcast
3:15 AM 66.7 °F 66.2 °F 98% 30.17 in 7.0 mi Calm Calm - N/A   Mostly Cloudy
3:35 AM 67.1 °F 66.4 °F 98% 30.17 in 7.0 mi NNW 3.5 mph - N/A   Overcast
3:55 AM 66.7 °F 66.4 °F 99% 30.18 in 7.0 mi North 4.6 mph - N/A   Overcast
4:15 AM 67.1 °F 66.4 °F 98% 30.18 in 7.0 mi North 4.6 mph - N/A   Overcast
4:35 AM 66.7 °F 66.2 °F 98% 30.19 in 7.0 mi North 5.8 mph - N/A   Overcast
4:55 AM 66.4 °F 65.8 °F 98% 30.20 in 7.0 mi North 8.1 mph - N/A   Overcast
5:15 AM 65.7 °F 64.9 °F 98% 30.20 in 7.0 mi North 3.5 mph - N/A   Scattered Clouds
5:35 AM 64.4 °F 64.0 °F 99% 30.21 in 7.0 mi North 5.8 mph - N/A   Scattered Clouds
5:55 AM 64.2 °F 63.7 °F 98% 30.21 in 7.0 mi North 5.8 mph - N/A   Scattered Clouds
6:15 AM 63.7 °F 62.8 °F 97% 30.22 in 10.0 mi North 6.9 mph - N/A   Scattered Clouds
6:35 AM 63.3 °F 62.1 °F 96% 30.23 in 10.0 mi North 4.6 mph - N/A   Mostly Cloudy
6:55 AM 63.0 °F 61.7 °F 96% 30.23 in 10.0 mi NNW 8.1 mph - N/A   Overcast
7:15 AM 62.6 °F 60.8 °F 94% 30.24 in 10.0 mi North 9.2 mph - N/A   Overcast
7:35 AM 62.6 °F 60.1 °F 91% 30.25 in 10.0 mi North 9.2 mph - N/A   Overcast
7:55 AM 62.6 °F 59.4 °F 89% 30.25 in 10.0 mi North 8.1 mph - N/A   Overcast
8:15 AM 62.6 °F 59.2 °F 89% 30.26 in 10.0 mi North 8.1 mph - N/A   Overcast
8:35 AM 62.6 °F 58.6 °F 87% 30.27 in 10.0 mi North 10.4 mph - N/A   Overcast
8:55 AM 62.6 °F 58.3 °F 86% 30.28 in 10.0 mi North 6.9 mph - N/A   Mostly Cloudy
9:15 AM 63.5 °F 58.3 °F 83% 30.29 in 10.0 mi NNE 6.9 mph - N/A   Mostly Cloudy
9:35 AM 64.4 °F 58.1 °F 80% 30.29 in 10.0 mi NNE 6.9 mph - N/A   Scattered Clouds
9:55 AM 68.0 °F 58.1 °F 71% 30.29 in 10.0 mi NNE 9.2 mph - N/A   Clear
10:15 AM 68.7 °F 57.9 °F 68% 30.30 in 10.0 mi North 6.9 mph - N/A   Clear
10:55 AM 71.8 °F 58.8 °F 64% 30.30 in 10.0 mi NNE 8.1 mph - N/A   Clear
11:15 AM 72.9 °F 59.2 °F 62% 30.29 in 10.0 mi NNE 9.2 mph - N/A   Clear
11:35 AM 74.3 °F 59.7 °F 60% 30.29 in 10.0 mi North 6.9 mph - N/A   Mostly Cloudy
11:55 AM 74.3 °F 59.9 °F 61% 30.29 in 10.0 mi North 8.1 mph - N/A   Overcast
12:15 PM 75.7 °F 60.4 °F 59% 30.29 in 10.0 mi NNE 4.6 mph - N/A   Scattered Clouds
12:35 PM 76.5 °F 60.4 °F 58% 30.28 in 10.0 mi North 10.4 mph - N/A   Clear
12:55 PM 76.8 °F 60.4 °F 57% 30.28 in 10.0 mi North 11.5 mph 16.1 mph N/A   Clear
1:15 PM 77.4 °F 60.1 °F 55% 30.27 in 10.0 mi NNE 9.2 mph 16.1 mph N/A   Clear
1:35 PM 77.2 °F 59.5 °F 54% 30.26 in 10.0 mi North 10.4 mph - N/A   Clear
1:55 PM 78.3 °F 59.7 °F 53% 30.26 in 5.0 mi NNE 5.8 mph - N/A   Haze
2:15 PM 78.1 °F 59.4 °F 52% 30.26 in 10.0 mi North 5.8 mph - N/A   Clear
2:35 PM 78.1 °F 59.2 °F 52% 30.25 in 10.0 mi NNE 9.2 mph - N/A   Clear
2:55 PM 78.4 °F 58.5 °F 50% 30.25 in 10.0 mi North 10.4 mph - N/A   Clear
3:15 PM 78.4 °F 58.1 °F 50% 30.24 in 10.0 mi North 9.2 mph 17.3 mph N/A   Clear
3:35 PM 78.1 °F 57.2 °F 49% 30.24 in 10.0 mi NNE 6.9 mph - N/A   Clear
3:55 PM 77.9 °F 57.0 °F 48% 30.24 in 10.0 mi NNE 6.9 mph - N/A   Clear
4:15 PM 77.4 °F 55.6 °F 47% 30.24 in 10.0 mi North 11.5 mph 19.6 mph N/A   Clear
4:35 PM 77.2 °F 53.1 °F 43% 30.24 in 10.0 mi North 10.4 mph - N/A   Clear
4:55 PM 76.5 °F 51.6 °F 42% 30.24 in 10.0 mi North 11.5 mph - N/A   Clear
5:15 PM 75.4 °F 51.3 °F 43% 30.24 in 10.0 mi North 9.2 mph - N/A   Clear
5:35 PM 73.6 °F 50.4 °F 44% 30.24 in 10.0 mi North 9.2 mph - N/A   Clear
5:55 PM 71.4 °F 50.2 °F 47% 30.25 in 10.0 mi North 5.8 mph - N/A   Clear
6:15 PM 67.8 °F 50.7 °F 54% 30.25 in 10.0 mi North 5.8 mph - N/A   Clear
6:35 PM 64.9 °F 51.8 °F 62% 30.26 in 10.0 mi NNW 5.8 mph - N/A   Clear
6:55 PM 64.8 °F 51.3 °F 62% 30.27 in 10.0 mi North 5.8 mph - N/A   Clear
7:15 PM 63.3 °F 50.5 °F 63% 30.27 in 10.0 mi North 5.8 mph - N/A   Clear
7:35 PM 63.0 °F 50.0 °F 63% 30.28 in 10.0 mi North 4.6 mph - N/A   Clear
7:55 PM 62.6 °F 49.1 °F 61% 30.28 in 10.0 mi NNE 5.8 mph - N/A   Clear
8:15 PM 62.1 °F 48.4 °F 61% 30.28 in 10.0 mi North 4.6 mph - N/A   Clear
8:35 PM 60.6 °F 48.6 °F 64% 30.29 in 10.0 mi North 3.5 mph - N/A   Clear
8:55 PM 61.2 °F 48.0 °F 62% 30.29 in 10.0 mi NNE 3.5 mph - N/A   Clear
9:15 PM 61.0 °F 47.8 °F 62% 30.29 in 10.0 mi North 4.6 mph - N/A   Clear
9:35 PM 60.8 °F 47.8 °F 62% 30.29 in 10.0 mi NNE 3.5 mph - N/A   Clear
9:55 PM 59.9 °F 47.7 °F 64% 30.29 in 10.0 mi NNE 4.6 mph - N/A   Clear
10:15 PM 58.5 °F 48.0 °F 68% 30.29 in 10.0 mi NNE 3.5 mph - N/A   Clear
10:35 PM 58.1 °F 48.2 °F 70% 30.29 in 10.0 mi Calm Calm - N/A   Clear
10:55 PM 57.4 °F 48.0 °F 71% 30.29 in 10.0 mi NNE 4.6 mph - N/A   Clear
11:15 PM 56.5 °F 48.6 °F 75% 30.28 in 10.0 mi NNE 4.6 mph - N/A   Clear
11:35 PM 54.0 °F 48.7 °F 82% 30.28 in 10.0 mi NNE 4.6 mph - N/A   Clear
11:55 PM 54.3 °F 48.6 °F 81% 30.27 in 10.0 mi North 5.8 mph - N/A   Clear